Wind_Speed
33 32 32 31 31 31 30 29 30 30 31 31 32 33 32 31 30 29 28 27 27 27 27 28 29 29 28 26 24 23 23 23 24 24 24 23 24 25 26 26 27 27 27 27 28 28 29 29 30 30 29 28 26 24 21 19 17 15 13 10 10 13 12 9 7 5 5 5 4 4 5 6 7 7 7 7 6 6 6 7 7 7 8 7 7 7 7 7
32 32 31 31 31 31 30 29 29 29 30 31 31 31 30 30 30 29 27 27 27 27 27 27 28 27 26 25 24 24 24 24 25 24 24 25 27 28 27 27 26 26 26 26 27 27 28 28 28 29 28 27 26 24 22 20 18 16 14 12 11 12 10 9 7 6 5 5 3 3 4 4 5 6 7 6 5 6 6 6 7 7 7 7 8 8 8 8
32 31 30 31 31 31 30 29 28 28 29 30 30 30 29 29 29 28 27 26 27 27 27 27 27 25 25 25 25 25 24 25 25 25 25 27 29 29 28 26 26 26 26 26 26 27 26 26 27 28 28 27 26 24 22 20 18 17 15 13 12 11 9 8 8 6 5 6 4 2 2 2 3 4 5 5 6 6 6 6 6 6 7 8 9 9 9 9
32 31 30 30 30 30 30 29 28 28 29 29 29 28 28 28 28 27 27 27 27 27 27 26 26 25 25 26 26 25 25 25 25 25 26 28 28 28 28 27 25 25 26 25 25 26 25 25 26 27 28 27 25 24 22 21 19 18 17 14 12 11 9 8 9 7 6 6 4 2 0 1 0 2 2 3 4 4 6 6 6 7 8 8 8 9 10 10
32 31 30 29 29 29 30 29 28 28 28 28 28 27 27 27 27 27 27 27 28 27 27 26 26 26 27 27 26 26 26 25 25 27 27 28 28 27 27 27 26 25 25 25 25 25 25 25 26 27 27 26 25 24 23 22 21 19 18 16 14 12 10 8 9 9 7 6 4 3 2 1 1 1 2 2 2 4 7 7 7 8 8 8 8 8 9 10
32 31 30 30 29 29 29 29 28 28 28 28 28 27 26 26 26 27 27 27 28 27 27 27 27 27 27 27 26 27 26 23 24 28 27 27 26 26 26 25 26 26 25 24 24 24 24 25 25 26 27 26 25 25 24 23 22 20 19 18 16 14 11 9 10 10 8 7 5 5 4 3 3 3 3 2 3 6 6 6 7 8 8 8 7 6 7 9
33 31 30 29 29 28 28 28 28 28 28 28 27 27 26 26 26 27 27 28 28 28 28 28 28 29 28 28 27 27 26 21 23 27 26 26 25 25 25 24 25 25 25 24 23 24 24 24 25 25 25 25 25 25 24 24 23 22 20 19 18 16 14 11 11 11 10 9 8 7 6 5 5 5 3 1 4 7 6 7 7 7 7 7 6 6 6 8
33 31 30 29 29 28 28 27 28 28 28 28 27 27 27 27 27 27 28 28 29 29 29 29 29 29 28 28 27 27 26 20 22 25 24 24 24 24 24 24 25 25 24 24 23 23 23 23 24 24 25 25 25 25 25 24 24 23 21 20 19 18 16 14 13 13 12 11 10 9 8 8 7 7 4 3 7 8 7 8 8 7 7 6 6 6 6 6
33 31 30 29 28 28 27 27 28 28 28 28 27 28 27 28 28 28 29 29 29 30 30 30 29 29 28 28 26 26 25 19 21 24 23 23 22 23 24 23 24 24 24 24 23 23 23 23 23 24 24 24 24 24 24 23 23 23 22 20 19 19 18 17 16 15 14 13 12 10 10 9 9 8 5 6 9 8 7 8 7 7 7 6 6 6 6 6
33 31 30 29 28 28 27 27 28 28 28 28 28 28 28 28 28 29 30 29 30 31 31 30 29 29 27 27 26 25 23 19 20 24 23 23 22 22 22 23 23 24 23 24 24 24 23 22 22 23 23 23 23 23 23 23 22 22 22 21 20 19 20 19 18 18 16 15 13 12 12 11 11 9 6 8 10 8 7 8 8 7 7 8 8 7 7 7
33 32 30 29 28 27 27 27 28 28 28 28 29 29 28 28 28 29 30 31 31 31 30 29 29 28 27 27 25 23 23 19 20 23 23 23 23 22 22 22 23 23 23 23 23 23 23 22 22 22 22 22 22 22 22 22 22 21 21 21 20 20 20 19 19 19 19 17 15 14 14 13 12 8 6 10 11 8 8 8 9 9 9 9 9 9 8 8
33 32 30 29 28 27 27 27 28 28 28 29 29 29 28 28 28 29 30 31 31 30 28 28 29 28 26 26 23 22 22 20 20 23 24 23 24 23 24 23 23 23 23 23 22 22 22 22 22 21 20 20 21 19 20 22 22 21 21 21 20 19 19 19 20 20 20 18 16 14 15 15 12 8 8 12 10 8 8 8 9 10 11 11 11 10 10 10
33 32 31 30 29 28 27 27 27 28 28 29 29 28 28 28 28 29 30 30 30 28 27 27 28 28 26 24 22 22 22 20 21 23 24 24 24 24 25 24 23 23 23 23 22 21 21 21 21 21 19 18 19 18 18 21 22 21 21 21 20 19 19 20 20 20 19 18 17 15 15 15 11 9 11 12 10 9 8 8 9 10 12 12 12 11 11 12
34 33 32 31 29 28 28 27 27 27 28 28 28 28 27 28 28 29 29 28 27 26 26 26 27 27 25 23 23 23 22 21 22 24 24 25 25 25 25 25 24 24 24 23 23 22 21 21 20 20 19 17 19 18 16 19 22 21 21 21 21 21 20 21 20 20 19 19 17 16 17 17 12 9 11 12 11 10 9 10 11 11 12 13 13 13 12 13
34 34 33 32 30 29 29 28 28 28 28 29 29 28 27 27 28 27 27 26 25 25 25 25 26 27 26 24 24 24 23 22 23 25 25 25 25 25 26 25 25 25 24 23 23 23 22 21 20 21 20 18 19 19 16 18 22 22 20 20 22 23 20 20 20 20 20 19 18 17 17 16 14 12 11 11 11 10 10 12 12 12 12 13 13 13 13 13
34 33 33 32 31 30 29 29 29 29 29 30 30 29 28 27 27 27 26 25 24 25 25 25 26 27 26 25 24 25 24 22 24 26 26 26 26 26 25 25 25 25 24 24 23 23 22 22 21 21 21 19 19 20 16 16 20 23 21 20 22 23 20 19 19 20 20 20 20 18 16 14 12 13 13 12 11 11 13 13 13 12 12 13 13 13 13 13
33 33 32 32 31 30 30 30 30 30 30 31 31 30 29 28 27 26 25 25 25 25 24 24 25 25 25 25 26 27 26 23 24 27 27 27 27 26 26 25 25 25 24 24 23 23 23 22 23 23 23 21 20 20 18 18 21 23 23 22 21 20 20 18 17 18 19 20 19 19 20 17 13 12 13 15 14 13 14 14 14 13 13 13 13 13 12 12
33 32 32 31 32 31 30 30 30 31 31 31 32 31 30 28 27 27 26 26 26 25 24 24 26 25 24 26 28 27 27 24 24 27 27 28 28 27 27 25 25 25 24 25 24 24 24 23 23 23 24 23 22 23 23 22 21 21 22 21 20 18 19 19 18 17 17 19 19 19 20 17 15 15 14 15 17 17 17 16 15 14 13 12 12 11 11 12
33 32 32 31 31 32 31 31 31 31 32 33 33 33 31 30 28 28 27 27 27 28 28 27 29 29 26 27 29 27 28 26 24 26 27 28 29 28 27 25 25 25 25 26 25 25 25 24 24 25 27 26 25 25 23 20 17 15 16 17 18 18 18 18 19 18 17 17 18 20 20 18 17 18 17 17 19 20 19 18 16 14 13 12 11 11 11 12
34 32 32 31 31 31 32 31 31 32 33 34 34 34 34 34 33 32 30 29 29 30 30 29 30 31 24 23 28 28 29 29 26 25 25 27 29 28 27 26 26 26 26 26 26 26 26 26 28 28 27 25 23 22 21 19 16 13 13 13 16 17 17 16 17 18 18 17 18 19 21 20 18 19 19 19 20 21 20 19 17 15 14 14 13 13 13 13
35 33 32 31 30 31 32 33 33 33 34 34 34 35 35 36 35 35 34 33 31 31 31 28 28 31 23 18 25 29 30 30 28 26 25 26 28 28 28 28 27 27 27 26 25 25 25 27 28 25 22 21 21 21 20 19 18 16 13 13 14 16 16 16 16 17 17 17 17 18 21 22 19 18 19 20 22 22 21 20 19 18 17 16 15 13 13 13
35 34 33 31 31 32 33 35 35 34 35 35 35 35 34 33 32 30 31 32 32 31 30 28 27 30 25 17 23 30 31 31 30 28 26 25 27 28 28 29 28 27 26 26 25 25 26 27 24 21 21 21 21 21 20 20 20 18 15 14 14 15 15 15 15 15 16 16 17 19 22 22 20 19 19 20 23 23 22 22 21 20 19 17 15 14 14 14
36 35 33 32 32 33 34 36 36 36 36 35 35 35 33 33 29 26 27 28 30 30 29 28 26 29 27 18 20 29 31 31 31 30 29 27 26 27 27 28 27 26 26 27 26 26 26 24 22 22 22 23 22 22 21 20 19 17 15 14 15 15 14 13 13 14 15 15 16 18 21 23 21 20 19 19 22 23 23 23 22 20 19 17 16 15 15 14
37 35 34 34 33 34 36 37 38 37 36 35 34 34 32 32 29 25 25 27 28 30 30 27 25 27 27 19 18 26 29 29 29 29 30 28 26 26 25 25 26 26 26 25 25 25 22 18 21 24 23 22 22 22 21 20 18 15 13 14 14 14 13 12 11 11 13 13 15 16 18 21 21 19 18 19 20 22 23 23 23 21 20 19 18 17 16 14
39 36 35 35 34 35 36 37 39 38 36 35 34 34 31 31 30 24 24 26 26 29 30 28 25 26 28 22 17 22 27 28 27 27 28 28 27 26 24 23 24 25 25 24 23 22 20 17 19 23 23 22 22 21 21 20 19 17 15 15 13 11 11 10 9 9 10 10 12 12 9 11 14 12 12 15 16 18 19 19 19 19 20 20 19 18 16 15
40 38 36 35 35 36 36 39 39 38 38 37 35 34 31 32 30 23 24 24 23 28 30 28 26 25 28 26 21 20 23 27 28 26 26 27 27 27 25 25 24 24 22 21 20 20 21 19 18 20 22 22 21 21 21 20 20 18 16 16 15 13 11 10 9 8 7 6 8 9 4 6 14 12 10 11 12 13 14 13 15 17 18 18 18 16 16 15
40 38 37 36 35 35 37 39 39 40 40 37 36 35 32 32 29 25 22 14 13 26 30 28 28 26 28 28 24 23 23 26 29 28 27 27 27 27 26 26 25 23 21 21 20 20 22 23 19 17 20 22 23 22 21 21 21 19 17 16 15 14 13 11 11 11 10 9 10 12 10 10 17 19 15 13 12 11 11 11 13 15 15 16 16 16 16 16
41 39 37 36 35 35 37 38 39 41 39 37 36 34 31 30 28 26 19 5 6 22 28 29 29 26 27 27 26 26 24 24 29 31 29 28 28 28 27 26 25 23 22 23 24 22 20 23 21 18 19 22 22 21 20 20 20 19 17 15 13 12 12 12 11 11 12 12 11 13 11 8 14 20 18 16 15 13 12 13 15 14 13 14 15 15 16 16
42 40 37 36 36 36 37 38 38 38 37 37 35 33 31 28 26 24 13 3 10 21 26 30 30 27 27 27 26 28 26 23 28 31 31 30 29 28 27 25 23 22 22 24 24 21 18 20 21 19 18 20 20 19 19 20 20 19 16 14 12 11 10 9 9 10 9 9 8 9 9 6 11 19 19 15 14 13 13 13 13 13 11 12 14 15 16 17
43 41 38 37 37 37 38 38 38 38 38 37 35 33 30 27 28 20 6 9 18 20 25 30 32 31 30 29 29 29 28 25 26 29 31 32 31 29 28 25 23 22 21 22 22 22 19 18 20 21 18 18 18 18 19 19 19 18 16 13 11 9 8 8 8 8 5 6 7 9 12 9 6 11 10 8 8 9 9 9 10 10 9 10 11 12 12 13
44 42 40 39 38 37 39 38 38 39 38 37 35 33 31 29 29 17 5 16 24 22 28 32 34 36 33 33 33 32 32 28 26 28 31 33 32 32 30 26 25 23 21 23 23 23 21 18 19 21 21 19 19 19 19 19 20 18 16 14 11 7 6 6 7 6 3 3 3 7 12 13 9 5 2 2 2 5 7 8 11 11 10 8 8 7 7 8
45 44 42 41 39 38 39 38 38 38 37 38 35 34 36 29 24 19 14 20 21 22 33 34 36 41 38 36 35 34 35 31 27 28 30 33 34 34 34 31 30 26 22 25 25 23 22 20 19 20 21 21 21 22 21 20 21 19 17 16 11 4 2 4 3 3 5 5 4 5 7 12 16 15 10 6 4 7 9 11 13 13 11 10 9 9 9 8
44 44 43 42 41 40 40 38 39 39 38 39 36 37 38 23 18 30 28 22 17 21 34 35 36 42 41 39 37 36 37 34 31 29 28 32 33 34 35 32 32 29 25 27 27 23 20 19 22 23 22 24 25 25 26 24 23 21 20 18 14 5 3 2 3 2 5 5 6 8 6 9 16 17 15 14 13 13 13 15 15 13 12 12 11 10 8 6
42 43 42 42 41 41 41 39 40 40 38 40 39 39 36 21 23 37 33 25 19 20 31 35 35 40 40 41 40 38 38 35 33 31 29 31 33 35 36 34 34 33 29 26 27 26 20 15 23 27 24 25 27 27 25 23 22 22 21 20 18 12 5 3 4 3 2 2 6 9 5 5 7 3 2 7 17 22 19 18 17 14 13 12 11 10 8 8
40 41 42 42 42 41 41 40 40 41 39 41 41 40 37 28 27 35 35 31 23 20 29 34 34 39 40 40 40 39 39 37 35 33 30 32 35 36 38 38 37 37 33 27 25 29 26 18 21 27 25 23 25 25 22 20 21 22 22 21 20 17 10 3 3 4 3 2 2 8 9 9 8 5 3 3 6 15 20 20 18 14 14 14 13 12 12 11
38 40 41 42 42 41 42 41 40 41 41 42 43 43 44 34 23 28 36 36 28 23 29 31 32 38 39 38 39 39 40 38 36 35 32 33 35 36 37 39 39 40 38 33 28 27 27 21 18 23 26 23 22 25 25 23 21 21 24 26 22 19 15 7 2 1 1 1 4 8 13 17 14 11 11 9 5 6 12 17 18 17 17 17 16 14 13 11
37 38 39 41 42 42 42 41 41 42 42 43 45 45 44 32 20 23 31 36 32 23 25 30 31 36 39 39 40 41 41 38 36 36 36 34 33 36 38 37 38 41 40 37 32 27 25 20 16 19 25 25 24 25 27 26 25 23 24 27 23 16 15 11 4 1 2 2 5 9 16 19 16 11 12 15 16 16 15 15 15 17 19 19 17 14 13 11
38 38 38 39 42 42 42 42 42 43 42 45 47 43 38 30 22 21 25 32 33 23 22 29 32 35 40 41 42 43 42 40 38 38 38 36 32 35 41 40 38 40 40 38 32 27 23 17 14 17 22 25 25 25 27 28 29 26 23 23 19 12 10 12 7 1 1 2 4 7 13 17 19 17 12 9 11 14 18 17 15 16 18 18 17 15 14 12
40 40 39 38 39 41 42 42 43 44 43 47 49 41 35 32 27 24 23 27 30 26 23 26 30 34 38 40 42 43 43 42 42 41 38 36 34 34 38 40 39 39 40 40 34 29 26 18 13 17 22 25 27 29 31 32 33 31 24 19 18 13 10 13 12 6 3 3 2 3 5 9 14 16 12 11 13 13 14 15 15 16 16 17 17 16 14 13
43 43 41 39 38 39 41 41 43 46 46 49 50 41 35 33 30 27 25 24 29 29 26 26 27 31 36 38 38 40 42 41 43 43 39 37 37 35 35 38 39 38 38 39 37 32 27 21 16 17 22 26 28 32 36 37 36 34 29 24 23 20 14 12 14 13 8 3 3 2 3 4 4 3 6 10 14 15 15 16 17 17 16 16 15 14 14 15
40 42 43 42 40 40 41 41 42 47 49 49 49 43 36 32 29 28 26 25 28 30 29 27 26 26 30 34 36 38 41 41 41 42 41 40 40 37 35 36 38 39 38 39 40 36 30 26 22 20 25 30 32 33 35 34 33 34 33 31 30 29 23 12 9 17 18 10 5 4 4 3 6 8 8 8 9 11 12 13 17 19 19 17 14 14 16 18
29 34 40 45 46 45 45 43 43 48 50 50 49 44 38 33 29 29 28 27 27 29 30 28 26 25 24 28 33 35 37 40 41 41 41 43 42 38 34 33 34 36 38 39 40 40 34 28 24 22 25 28 28 29 31 31 32 32 32 34 33 33 34 24 13 16 19 16 11 5 5 8 11 11 9 9 10 10 9 11 15 18 18 15 13 14 17 19
23 25 30 38 43 46 48 47 47 49 50 50 50 46 40 35 30 28 29 29 28 29 30 29 28 27 24 24 28 32 34 36 39 41 42 42 43 39 33 29 29 31 36 37 37 39 35 29 26 22 21 24 27 29 30 30 32 34 35 37 36 36 39 35 25 17 15 18 16 6 3 10 14 14 13 11 10 9 10 13 14 14 14 12 12 16 19 20
23 22 24 27 30 36 41 45 50 54 53 51 50 48 45 39 33 30 29 30 29 28 29 29 28 29 27 24 23 27 30 32 33 38 41 41 42 41 36 32 29 29 32 36 38 39 34 31 29 18 8 10 17 20 24 30 34 38 40 40 40 39 36 34 30 19 13 20 20 11 9 14 11 8 9 10 11 12 14 15 14 12 12 14 16 20 22 22
25 23 23 21 22 26 31 36 43 50 54 53 50 49 49 44 38 34 31 30 30 29 28 28 28 28 28 25 23 24 27 29 30 32 36 40 40 39 38 35 31 29 29 31 35 37 35 35 35 24 12 9 13 17 28 38 40 39 41 41 41 40 36 35 31 20 17 24 25 23 21 18 14 10 7 10 14 16 16 14 12 12 14 18 21 23 23 22
27 27 25 22 21 23 26 29 32 37 45 50 48 47 48 47 44 39 34 32 31 30 29 28 28 28 28 27 26 25 26 29 30 29 31 35 38 38 37 36 34 30 28 29 32 35 34 36 39 37 34 33 33 32 34 37 37 39 42 41 40 39 37 36 30 27 32 30 27 34 35 26 24 18 10 15 19 18 14 12 13 15 17 19 21 22 23 22
29 29 28 27 25 25 27 29 30 32 36 41 43 44 45 46 45 42 37 34 33 32 30 29 29 29 29 29 27 26 26 28 30 31 30 30 34 36 35 35 34 32 28 28 31 32 33 35 38 40 42 43 41 36 31 29 30 34 38 39 40 39 38 38 35 38 41 30 26 41 41 34 35 26 17 19 21 18 17 18 19 20 19 20 21 23 25 27
31 30 30 30 29 29 31 31 30 31 31 32 35 38 40 42 42 41 40 38 37 36 33 32 33 32 30 29 27 25 25 26 29 32 32 30 30 32 33 32 32 33 32 29 30 31 32 34 37 38 39 41 39 36 33 31 28 27 29 31 35 37 38 41 42 44 44 37 37 45 40 37 40 33 27 29 26 23 24 22 23 24 24 26 28 30 32 34
32 31 31 32 31 31 32 34 32 29 27 27 30 31 33 37 39 40 40 40 41 41 39 38 39 38 34 32 31 30 28 28 29 31 32 32 30 28 30 31 30 32 33 31 30 30 30 31 33 35 36 38 38 37 36 36 32 30 29 28 29 31 34 38 41 42 44 44 45 45 41 42 42 36 34 34 29 27 28 28 29 30 31 33 34 33 34 36
31 32 31 33 34 33 32 34 35 32 26 23 27 30 31 32 34 37 38 39 41 42 43 44 44 41 38 36 36 37 36 34 32 31 30 32 32 29 28 28 29 31 32 33 31 30 31 30 30 31 32 33 36 37 37 37 36 35 34 31 30 29 31 36 39 40 43 46 45 44 46 47 45 40 38 36 33 33 33 34 35 35 36 37 36 36 37 38
29 32 32 33 35 35 33 32 34 36 33 29 29 31 31 31 31 32 34 36 37 37 39 43 44 41 38 37 37 40 39 35 33 31 29 29 31 31 28 27 29 29 31 34 33 32 32 31 29 28 27 29 33 33 33 36 35 34 35 35 36 37 38 40 40 39 41 43 42 44 48 48 46 42 39 39 39 39 38 39 39 39 40 39 39 39 38 37
28 30 32 32 33 35 36 33 32 35 38 38 36 34 32 31 29 28 29 31 33 34 34 34 36 38 39 39 40 42 39 34 30 27 26 26 27 29 28 27 27 27 27 31 33 35 34 33 32 28 23 26 30 28 29 29 23 25 36 40 40 42 43 42 42 40 40 40 40 44 46 45 44 42 39 39 40 39 39 39 38 38 38 38 38 38 37 36
Wind_Direction
199 201 201 201 201 199 199 200 201 202 202 202 205 206 207 208 212 213 212 210 207 206 206 208 210 209 209 213 214 213 210 202 198 195 183 171 171 176 179 178 176 173 172 173 175 177 179 182 184 185 185 186 187 187 186 188 189 191 190 190 194 189 184 183 179 184 183 166 159 171 168 168 174 184 201 203 198 199 200 199 197 202 204 197 194 190 187 188
197 199 201 200 200 199 198 198 199 200 200 201 204 206 207 208 210 210 208 206 204 204 204 206 207 206 205 207 208 206 202 198 194 188 178 174 175 175 176 176 174 171 171 173 176 179 181 184 187 187 187 188 189 190 189 190 192 194 193 191 190 189 188 186 184 185 178 157 140 148 146 150 169 179 191 196 199 208 210 207 205 210 210 206 200 192 186 184
196 197 199 199 199 200 198 197 198 199 200 201 204 205 205 207 208 207 205 204 202 202 202 203 204 202 202 203 202 199 196 196 191 182 178 178 176 173 173 173 171 171 171 173 177 180 182 185 190 190 189 190 191 192 193 193 194 196 194 191 190 192 195 192 192 189 176 166 156 143 118 114 161 185 187 189 199 205 208 209 208 213 215 212 207 200 192 185
195 196 196 198 198 199 197 196 196 198 200 201 203 203 203 205 206 206 204 202 201 201 201 200 200 199 200 199 196 193 193 194 186 178 179 179 176 172 170 170 171 172 172 175 179 181 182 187 191 192 191 192 194 195 197 196 197 199 196 192 192 198 202 200 199 194 185 178 173 189 175 61 167 202 198 201 208 202 202 206 205 213 221 221 217 209 201 194
194 195 195 196 197 197 196 194 194 196 198 200 202 201 201 203 205 206 204 202 201 200 198 197 197 197 197 194 190 190 192 191 183 177 180 179 176 173 169 168 171 174 176 178 181 183 184 188 191 193 194 195 197 198 200 200 200 201 198 194 196 200 202 202 202 198 197 195 202 237 262 295 271 254 242 226 222 208 201 202 204 209 216 222 224 218 211 203
193 194 193 194 195 196 195 192 192 193 196 198 200 200 201 202 205 206 203 201 200 198 197 195 194 194 192 189 189 191 189 186 180 178 179 179 176 173 170 169 172 176 180 182 184 185 187 190 192 194 197 198 200 201 202 202 203 204 202 198 200 204 203 202 202 199 202 205 222 246 257 265 269 267 255 230 222 220 209 204 208 208 207 211 217 217 215 209
193 194 192 193 193 194 195 192 191 192 194 196 198 200 200 201 204 206 203 200 198 197 195 191 192 191 189 188 190 191 187 182 180 179 178 179 177 173 171 173 175 178 182 186 187 188 190 193 195 196 199 201 203 204 204 205 206 207 206 203 206 209 209 210 207 204 208 212 225 241 253 260 265 264 254 221 233 232 219 213 210 206 203 200 202 205 208 207
192 193 192 193 192 193 193 193 192 191 192 194 196 198 199 200 202 205 203 198 196 195 191 188 189 189 188 189 192 191 185 181 180 179 179 180 179 175 174 176 179 181 184 187 190 191 193 195 197 198 201 204 205 205 205 206 209 210 210 209 211 213 214 218 216 215 217 221 231 240 252 258 261 261 247 224 240 234 218 215 209 203 201 193 194 195 196 198
191 192 192 192 192 192 192 192 192 190 190 191 194 196 197 198 199 202 201 196 194 193 188 187 188 189 189 190 193 191 184 181 180 180 180 181 182 180 178 179 182 185 187 189 191 194 196 198 200 201 203 206 206 207 207 208 211 212 213 214 215 216 218 223 225 225 226 229 237 244 251 256 259 259 245 233 242 234 215 215 210 203 198 195 199 197 195 198
190 191 192 192 192 192 191 192 192 189 187 189 192 194 194 196 197 199 198 194 192 190 187 186 189 190 191 192 193 188 184 182 180 181 181 182 183 183 182 182 184 186 189 191 192 194 197 198 201 203 204 207 208 209 208 209 213 214 215 217 218 219 222 226 228 230 232 235 240 248 253 257 257 256 250 243 246 241 226 218 212 203 196 197 200 201 203 205
189 190 191 192 192 191 190 191 192 187 184 187 190 191 191 193 195 196 195 192 190 188 187 188 190 191 192 194 192 185 184 184 182 182 181 182 183 183 184 185 185 186 188 191 191 193 195 196 199 201 202 206 207 209 210 210 213 214 215 218 220 221 223 226 229 230 234 237 242 250 255 257 253 250 248 247 245 244 236 221 212 203 197 199 199 203 207 210
188 189 190 191 191 191 190 190 191 186 183 186 187 187 187 190 192 193 192 190 188 188 189 190 192 192 193 195 189 184 187 185 183 183 182 183 184 184 184 186 186 186 186 188 190 192 193 194 196 197 200 204 204 205 209 210 212 213 214 216 220 222 224 226 228 230 233 237 243 251 258 258 254 248 244 247 246 245 242 227 216 208 203 203 202 206 206 213
187 188 189 191 191 190 189 190 190 185 182 183 183 182 184 187 188 189 189 189 188 188 190 192 194 193 194 193 187 185 188 186 185 184 183 183 184 185 185 185 186 186 186 186 187 189 192 194 194 194 197 201 200 202 205 206 208 211 213 215 217 221 224 226 229 231 234 238 241 249 257 256 254 252 247 248 250 247 243 231 221 215 213 211 208 208 208 215
186 188 190 191 190 189 189 188 188 184 180 178 176 176 179 182 184 186 188 189 188 188 191 193 195 196 194 191 187 188 188 186 186 184 184 184 185 186 186 185 185 185 186 186 185 187 190 193 193 193 194 196 198 201 204 203 203 206 210 214 217 220 224 226 229 233 236 239 242 247 252 252 251 255 253 253 254 252 243 231 224 219 218 218 214 212 209 215
185 188 190 191 190 190 189 187 186 182 177 174 171 171 175 179 182 185 188 189 189 190 191 194 196 197 195 192 189 189 188 188 187 185 185 185 185 187 187 186 185 185 186 186 186 187 189 192 192 191 192 192 195 200 202 200 201 203 205 211 217 221 225 228 231 234 237 241 243 245 249 251 248 248 252 252 247 243 238 232 231 227 226 227 223 218 214 216
185 188 189 191 190 190 189 186 185 182 177 173 170 170 174 179 182 183 186 189 190 191 192 194 196 197 196 194 192 190 189 189 187 186 186 186 185 186 187 187 186 186 186 187 188 188 189 191 191 192 193 193 195 198 199 197 199 203 206 211 217 220 223 228 231 233 236 241 243 243 245 249 248 245 245 248 241 235 234 232 232 229 227 231 230 228 222 221
184 187 189 190 190 190 190 187 186 184 180 176 172 171 175 179 181 182 185 188 190 192 192 193 196 197 198 197 195 191 189 189 188 187 186 186 185 185 187 187 187 187 187 187 188 189 190 192 194 195 196 197 198 199 198 197 199 202 206 213 218 220 221 225 229 232 234 239 243 243 244 245 247 246 241 242 241 237 234 229 226 225 225 229 230 230 228 227
184 187 189 190 190 190 190 188 186 185 183 179 175 174 176 179 181 182 185 188 190 190 191 194 194 195 201 201 196 192 189 188 188 187 186 187 187 186 186 187 188 188 188 189 189 190 192 194 196 198 200 200 201 203 204 207 208 207 209 214 220 222 223 226 228 231 232 235 239 243 246 244 241 243 241 240 241 240 237 233 232 232 232 235 235 232 230 228
184 187 189 190 190 190 190 189 187 187 185 183 179 176 177 180 182 184 187 189 191 190 192 196 195 194 200 201 196 192 190 188 187 187 188 189 188 186 185 186 189 190 190 190 190 192 195 195 197 201 204 204 205 209 213 219 222 221 223 227 229 227 227 227 228 233 235 236 239 242 246 243 235 237 238 236 240 242 241 242 243 244 245 246 244 238 233 226
185 188 190 192 192 191 191 190 189 189 188 187 184 179 180 183 184 184 187 190 193 195 197 198 197 198 201 200 195 192 191 190 188 187 188 190 190 188 186 186 189 191 192 193 193 195 196 200 203 205 206 207 210 213 218 225 228 227 230 232 233 233 231 229 229 232 236 238 241 244 248 245 237 236 238 239 243 245 245 248 249 252 255 254 248 240 235 228
186 190 193 193 194 193 191 191 192 191 191 190 187 185 187 190 191 191 189 190 194 198 200 199 198 199 202 200 196 194 193 192 190 188 188 190 191 191 189 189 190 191 192 193 196 198 200 206 209 209 210 211 214 218 220 225 228 230 231 228 226 228 229 227 226 229 234 239 242 247 251 250 245 240 239 242 246 247 248 250 251 254 256 257 256 251 244 236
188 191 194 195 196 194 193 192 193 194 194 193 191 191 192 193 198 200 197 194 195 197 200 200 198 198 200 200 197 196 195 193 191 191 190 190 191 192 193 194 193 193 192 193 195 198 205 210 209 209 212 213 215 219 221 224 227 230 231 227 221 221 223 223 224 227 231 239 245 250 254 254 253 250 244 243 248 251 253 253 252 253 254 256 261 258 250 241
190 192 195 196 196 196 195 194 194 196 196 195 194 193 191 191 194 198 199 199 200 200 201 202 200 197 197 198 196 196 197 196 195 194 193 192 192 192 195 197 195 196 196 196 197 200 206 209 206 208 212 213 215 218 220 223 226 227 227 225 222 223 223 222 226 229 233 241 249 256 261 258 255 255 250 246 248 251 254 256 257 258 259 260 261 257 251 244
191 192 195 196 197 197 196 195 196 196 196 196 196 195 192 189 190 192 194 198 201 201 202 202 202 198 197 196 194 196 197 197 199 198 196 194 194 194 195 197 198 198 200 201 202 205 209 206 205 210 212 213 215 215 216 218 220 221 221 222 225 226 226 226 228 231 237 247 255 266 275 270 263 261 256 251 250 251 252 255 258 260 261 261 260 258 255 249
190 191 195 196 198 198 196 197 197 196 196 196 195 195 192 189 188 188 191 196 201 202 200 200 199 197 197 196 195 196 196 198 200 201 200 197 197 197 194 195 199 200 200 201 203 207 210 208 209 212 212 214 215 214 214 213 216 218 218 218 219 219 221 225 226 232 248 258 265 274 287 280 270 263 254 248 245 249 251 251 253 253 254 255 256 257 256 252
189 190 194 197 198 199 198 197 196 195 196 196 195 193 191 189 187 186 188 194 204 204 201 199 197 195 196 196 193 191 194 198 199 201 202 200 201 201 198 197 199 200 198 197 201 207 208 210 213 213 213 214 213 212 212 212 214 218 220 220 218 217 220 227 233 241 257 260 267 273 273 279 273 259 247 247 238 240 248 250 248 246 247 250 250 250 250 248
189 190 193 197 199 199 199 197 195 196 195 194 193 191 189 188 186 184 182 187 212 208 203 200 197 196 195 196 192 188 192 197 197 200 202 202 202 202 203 203 202 200 196 193 200 207 206 208 211 211 211 214 214 213 211 212 215 218 221 222 223 227 231 238 247 251 257 260 266 270 269 278 277 264 255 255 245 240 249 252 252 250 249 248 245 241 238 237
189 190 192 196 198 198 199 197 195 196 195 194 191 188 187 185 184 184 180 161 201 201 203 201 198 198 197 195 193 192 195 197 196 198 201 203 204 203 204 207 207 203 199 200 204 207 206 208 210 210 210 213 214 214 213 212 215 219 222 223 223 229 236 243 251 254 259 264 262 264 264 266 273 270 268 270 260 251 255 258 259 260 256 250 246 241 234 230
188 189 191 195 196 197 197 196 194 193 194 193 190 186 184 181 179 178 179 194 188 191 200 200 199 200 199 197 196 197 200 198 198 200 199 201 204 205 205 206 207 206 205 209 212 211 210 210 211 213 215 216 213 212 213 212 215 218 221 224 224 226 234 240 248 252 259 261 251 256 256 247 273 277 277 281 277 267 266 264 261 260 254 243 238 237 234 230
187 187 189 193 196 196 195 194 191 190 191 190 188 184 180 177 175 167 163 208 194 193 199 199 200 201 200 200 199 201 202 201 202 201 199 200 203 205 207 205 204 206 209 211 213 215 216 213 213 214 214 215 212 209 208 208 211 214 215 214 213 218 229 235 242 249 267 269 244 242 245 236 269 292 288 287 282 268 257 246 239 238 225 216 218 222 225 226
186 186 188 192 195 195 193 192 189 188 187 187 184 179 175 174 175 169 181 197 192 196 200 199 201 203 205 207 205 204 204 202 202 202 201 201 201 203 204 202 198 200 209 212 211 213 215 214 214 214 213 209 207 205 202 202 204 206 210 207 200 201 215 230 242 232 237 267 221 217 232 224 223 250 306 341 247 211 210 208 206 204 191 181 179 180 184 187
185 186 187 189 192 193 191 190 189 187 184 183 179 176 175 171 178 194 197 188 188 197 200 200 203 205 208 211 211 209 206 204 202 202 204 203 202 204 204 204 200 195 202 209 208 210 213 216 215 214 214 209 204 200 195 197 201 203 207 202 191 163 159 235 257 228 231 243 207 203 219 227 239 249 257 263 212 190 200 195 190 190 184 173 165 165 167 167
185 186 187 187 188 189 188 187 187 186 183 180 177 176 175 169 193 204 195 184 188 195 198 202 205 206 207 207 210 210 206 206 204 202 204 206 207 207 206 208 206 204 205 204 203 204 206 215 217 213 213 210 207 202 197 197 199 204 209 201 190 150 88 248 265 289 265 244 209 212 224 249 260 264 262 245 213 200 204 196 190 193 190 184 182 185 192 208
186 186 186 186 187 187 186 185 186 185 181 180 177 175 176 183 205 202 193 188 188 187 195 201 201 201 204 206 209 209 205 205 206 204 202 204 207 208 208 209 209 212 213 204 201 203 200 210 215 211 210 209 208 208 209 210 206 207 212 210 207 198 175 207 222 215 234 193 192 203 215 251 247 235 309 239 212 207 206 195 188 196 207 213 212 216 237 257
185 185 186 185 185 185 185 184 185 184 181 181 178 177 186 199 203 199 195 192 189 183 189 197 199 196 196 203 207 208 206 206 206 206 205 206 208 209 210 210 208 210 212 205 202 204 205 215 217 210 210 211 208 207 211 212 207 204 205 208 212 214 210 190 178 181 140 83 197 208 222 240 223 186 113 82 187 201 207 206 200 202 219 230 233 239 253 254
185 185 186 185 185 185 184 184 184 184 183 182 181 185 196 202 198 196 197 195 196 191 183 186 194 193 191 197 203 204 207 209 207 205 206 211 213 214 214 214 212 211 212 209 203 202 205 214 219 211 208 208 206 206 206 204 205 203 202 207 211 215 220 213 170 168 152 280 252 223 236 248 249 246 232 217 211 196 200 208 210 217 228 234 241 247 247 236
185 184 185 186 185 184 184 184 184 185 185 185 187 194 202 203 196 195 197 198 199 196 187 184 189 194 193 195 200 202 205 208 206 205 206 208 214 217 216 216 217 216 215 214 210 208 205 205 210 207 203 203 201 202 205 206 209 207 206 212 212 213 222 217 197 68 89 269 257 233 241 248 246 246 237 229 235 237 230 222 216 223 232 236 240 239 229 220
183 183 186 188 186 184 184 184 185 186 186 188 194 200 204 202 198 198 198 200 198 194 195 193 192 197 199 198 200 201 202 204 204 205 206 206 214 220 217 215 218 218 217 217 216 217 212 203 203 204 201 203 201 200 204 207 213 217 217 215 209 205 210 201 190 135 166 239 282 247 241 245 239 236 237 236 232 231 232 231 226 226 228 229 227 223 217 215
184 183 186 188 186 185 184 183 185 187 187 192 198 202 205 203 202 203 201 200 199 197 199 200 198 199 202 205 204 200 200 203 205 206 207 208 214 221 219 217 217 216 217 217 217 218 217 209 203 202 200 201 201 203 208 210 212 216 219 217 211 211 209 200 202 204 180 197 263 276 253 249 250 250 248 238 230 223 218 217 221 223 219 218 218 217 217 221
187 186 186 186 184 184 185 183 185 187 191 198 200 202 205 204 202 204 202 199 200 201 201 204 206 204 203 206 207 204 202 204 207 208 209 211 215 220 221 218 218 217 215 216 217 219 218 215 211 201 195 199 204 208 214 216 214 213 213 211 208 208 205 205 219 222 210 193 179 225 277 254 229 215 184 191 204 210 211 215 223 222 215 215 216 216 220 224
188 188 189 189 186 185 184 183 186 190 195 201 202 202 205 205 203 202 201 200 201 203 204 205 209 211 210 208 208 208 206 205 207 209 211 214 216 219 221 219 218 217 213 213 215 217 216 215 215 203 196 203 210 214 219 221 222 224 224 223 219 216 210 202 221 224 219 220 197 190 265 232 166 157 160 169 189 205 214 220 224 222 218 220 221 219 221 223
194 191 190 190 191 191 189 187 187 191 198 203 203 203 204 204 202 201 201 202 202 204 206 207 209 212 216 215 212 211 209 208 210 211 213 218 221 222 222 221 219 216 215 215 215 217 216 214 214 212 211 215 216 219 221 222 225 228 232 234 231 227 222 214 217 220 213 219 225 228 273 244 221 226 232 228 225 223 221 216 213 215 214 215 218 215 216 221
204 199 193 190 191 193 192 192 193 196 200 204 205 205 205 204 201 198 200 203 205 205 206 207 209 210 212 215 214 214 213 212 215 216 217 221 224 225 224 223 221 216 215 218 216 215 216 215 213 211 217 220 217 221 224 223 224 225 228 231 229 229 228 224 228 231 214 218 222 211 267 249 242 249 242 230 226 220 214 208 200 199 203 211 222 221 222 227
204 206 205 200 196 195 192 192 197 202 205 208 207 207 207 205 202 198 198 201 203 205 206 207 208 210 211 211 212 216 216 213 217 221 221 222 225 225 224 224 223 218 216 219 218 216 213 212 208 198 192 216 218 225 227 224 224 225 227 229 227 228 227 223 228 232 227 233 226 209 236 245 242 241 223 216 222 211 198 191 185 193 214 229 234 231 229 230
203 204 207 206 207 207 201 195 197 202 206 209 210 209 209 207 204 201 199 200 201 203 206 207 208 210 212 210 209 214 217 217 219 222 224 225 226 226 224 224 223 222 220 221 221 219 215 212 210 199 182 194 206 215 222 222 220 221 225 227 227 226 223 222 225 222 231 240 228 220 234 240 240 240 214 196 197 188 179 178 191 216 230 231 230 229 230 232
204 203 201 198 203 212 213 208 204 202 205 209 211 212 211 211 209 205 201 200 202 202 203 205 207 209 211 211 209 209 214 218 221 223 225 226 227 227 226 224 223 222 220 220 220 220 218 217 218 215 214 218 219 218 223 224 221 221 225 225 225 226 225 225 221 221 233 238 233 235 240 243 248 244 206 183 178 173 183 209 234 241 234 230 230 230 233 237
205 205 202 195 196 206 213 216 214 210 208 210 213 215 215 215 214 211 206 204 204 204 203 204 205 206 208 210 209 209 212 216 221 224 226 227 228 229 228 225 223 221 219 218 218 218 218 220 223 225 227 230 231 229 232 234 232 231 232 231 230 229 227 224 223 230 235 232 238 246 242 242 247 239 209 202 197 198 224 241 246 242 234 236 241 241 245 252
207 207 206 201 198 203 207 212 217 219 216 213 214 218 219 218 218 216 213 210 208 207 206 207 207 207 208 210 210 212 214 217 221 223 225 228 229 229 228 226 222 219 217 216 216 217 220 223 226 228 232 235 236 236 239 242 243 242 241 239 238 235 232 229 231 237 236 231 242 250 246 246 250 243 237 240 237 238 246 242 237 238 240 247 255 258 260 263
209 208 208 207 206 207 207 208 212 218 222 218 215 218 218 219 220 220 218 216 215 213 211 213 214 213 212 214 216 219 220 221 224 224 224 226 228 228 228 225 221 218 216 216 217 217 220 226 229 230 234 237 238 239 242 244 246 246 245 245 245 243 241 241 242 244 241 241 248 253 252 256 257 254 254 256 251 247 246 241 241 248 253 257 260 263 265 268
208 209 208 208 210 211 211 210 210 212 215 216 217 219 220 220 221 221 221 220 220 220 219 220 221 219 218 219 220 223 226 227 231 232 231 230 230 230 229 226 224 220 215 215 217 218 220 225 228 230 234 238 238 239 241 243 244 246 246 246 246 246 246 246 246 246 244 244 249 251 253 257 260 257 258 259 254 249 249 252 257 260 263 265 267 268 270 273
206 209 210 210 212 213 213 213 213 213 213 214 216 220 221 222 221 221 223 225 226 227 227 228 227 224 222 223 223 225 227 227 231 235 236 235 233 232 231 229 228 225 218 215 216 217 220 224 226 228 231 236 238 238 239 241 242 243 243 243 242 241 241 242 244 245 243 245 249 249 250 255 259 258 258 258 258 257 259 262 265 267 269 272 274 275 277 278
205 208 211 212 214 215 215 215 214 216 218 219 219 221 222 223 221 218 221 226 228 230 232 234 234 230 229 227 227 228 227 224 227 231 231 232 231 229 228 227 227 226 222 218 216 217 219 223 225 225 226 235 239 238 238 238 236 236 237 239 239 239 242 244 245 246 245 246 247 247 249 255 260 261 261 261 262 264 266 267 269 271 274 276 277 279 280 280
Height
3042 3045 3048 3051 3054 3057 3059 3062 3065 3068 3071 3074 3076 3079 3082 3084 3087 3089 3092 3094 3096 3098 3100 3102 3104 3106 3108 3109 3111 3112 3114 3116 3117 3119 3121 3123 3124 3127 3130 3133 3134 3136 3138 3140 3142 3144 3147 3149 3152 3155 3157 3160 3161 3163 3165 3166 3168 3169 3170 3170 3172 3173 3174 3174 3175 3175 3176 3176 3177 3178 3178 3178 3179 3179 3179 3180 3180 3181 3182 3183 3184 3184 3185 3186 3186 3187 3188 3188
3041 3044 3047 3049 3052 3055 3058 3061 3064 3067 3070 3072 3075 3078 3080 3083 3086 3088 3090 3093 3095 3097 3099 3101 3103 3105 3106 3108 3110 3112 3114 3115 3117 3119 3121 3122 3123 3126 3129 3132 3134 3135 3137 3139 3142 3145 3147 3149 3152 3155 3157 3159 3161 3163 3164 3166 3167 3168 3169 3170 3172 3173 3174 3174 3175 3175 3176 3176 3177 3177 3178 3178 3179 3179 3179 3180 3180 3181 3181 3182 3183 3184 3185 3185 3186 3187 3188 3188
3039 3042 3045 3048 3051 3054 3056 3059 3062 3065 3068 3071 3074 3077 3079 3082 3085 3087 3089 3091 3093 3096 3098 3100 3102 3103 3105 3107 3109 3111 3113 3114 3116 3119 3121 3122 3124 3126 3128 3131 3133 3135 3137 3139 3142 3144 3147 3150 3153 3155 3157 3159 3160 3162 3164 3165 3167 3168 3169 3170 3172 3173 3173 3174 3175 3175 3176 3176 3176 3177 3177 3178 3179 3179 3179 3180 3180 3180 3181 3182 3183 3183 3184 3185 3185 3186 3187 3188
3038 3041 3044 3046 3049 3052 3055 3058 3061 3064 3067 3070 3073 3076 3078 3081 3083 3086 3088 3090 3092 3094 3096 3098 3100 3102 3104 3107 3109 3111 3112 3114 3116 3118 3120 3122 3124 3125 3127 3130 3133 3135 3137 3139 3142 3144 3146 3149 3152 3154 3156 3158 3160 3162 3164 3165 3166 3167 3169 3170 3171 3172 3173 3174 3175 3175 3175 3176 3176 3177 3177 3177 3178 3179 3179 3180 3180 3180 3181 3181 3182 3183 3183 3184 3185 3186 3187 3188
3036 3039 3042 3045 3048 3051 3054 3057 3060 3063 3066 3069 3072 3074 3077 3080 3082 3085 3087 3089 3091 3093 3095 3097 3099 3102 3104 3106 3108 3110 3111 3114 3115 3117 3120 3122 3124 3125 3126 3129 3132 3135 3137 3139 3141 3144 3146 3149 3151 3154 3155 3157 3159 3161 3163 3164 3166 3167 3168 3170 3171 3172 3173 3174 3174 3175 3175 3175 3176 3176 3177 3177 3177 3178 3179 3179 3180 3180 3180 3180 3181 3182 3182 3183 3184 3185 3186 3187
3035 3038 3041 3044 3047 3050 3052 3055 3058 3061 3064 3067 3070 3073 3076 3078 3081 3083 3085 3088 3090 3092 3094 3096 3099 3101 3103 3105 3107 3109 3111 3113 3114 3116 3119 3122 3123 3124 3126 3128 3131 3134 3137 3139 3141 3144 3146 3148 3151 3153 3155 3157 3159 3161 3162 3164 3165 3166 3168 3169 3170 3171 3172 3173 3174 3174 3175 3175 3176 3176 3177 3177 3177 3177 3178 3179 3179 3180 3180 3180 3180 3181 3182 3182 3183 3184 3185 3186
3034 3037 3040 3043 3045 3048 3051 3054 3057 3060 3063 3066 3069 3072 3074 3077 3080 3082 3084 3086 3089 3091 3093 3096 3098 3100 3102 3104 3106 3108 3110 3112 3114 3116 3119 3121 3123 3124 3126 3128 3131 3134 3137 3139 3141 3143 3145 3148 3150 3152 3154 3156 3158 3160 3162 3163 3165 3166 3167 3169 3170 3171 3172 3173 3173 3174 3174 3175 3175 3176 3176 3177 3177 3177 3177 3178 3179 3179 3179 3180 3180 3180 3181 3182 3183 3183 3184 3185
3033 3036 3039 3042 3044 3047 3050 3053 3055 3058 3061 3064 3067 3070 3073 3076 3078 3081 3083 3085 3088 3090 3093 3095 3097 3099 3101 3103 3105 3107 3110 3112 3113 3116 3118 3120 3122 3123 3125 3128 3131 3133 3136 3139 3141 3143 3145 3147 3150 3152 3154 3155 3157 3159 3161 3162 3164 3165 3167 3168 3169 3170 3171 3172 3173 3173 3174 3174 3175 3175 3176 3176 3176 3176 3177 3178 3178 3178 3178 3179 3179 3180 3180 3181 3182 3183 3184 3185
3031 3035 3038 3041 3044 3046 3049 3052 3054 3057 3060 3063 3066 3069 3072 3074 3077 3080 3082 3085 3087 3090 3092 3094 3097 3099 3101 3103 3105 3107 3109 3111 3113 3115 3117 3119 3121 3123 3125 3128 3130 3133 3136 3138 3141 3143 3145 3147 3149 3151 3153 3155 3157 3158 3160 3162 3163 3164 3166 3167 3168 3169 3170 3171 3172 3173 3173 3174 3174 3174 3175 3175 3175 3175 3176 3176 3176 3177 3178 3178 3179 3179 3180 3181 3181 3182 3183 3184
3030 3033 3037 3040 3043 3045 3048 3051 3053 3056 3058 3061 3065 3068 3071 3074 3076 3079 3082 3084 3086 3089 3092 3094 3096 3098 3100 3102 3104 3107 3109 3111 3112 3114 3117 3119 3121 3123 3125 3127 3130 3132 3135 3138 3140 3142 3144 3147 3149 3151 3153 3154 3156 3157 3159 3161 3162 3164 3165 3167 3168 3168 3169 3170 3171 3172 3173 3173 3173 3174 3174 3174 3174 3174 3175 3175 3175 3176 3177 3178 3178 3178 3179 3180 3180 3181 3182 3183
3029 3032 3036 3039 3042 3044 3047 3050 3052 3054 3057 3060 3063 3067 3070 3073 3076 3078 3081 3083 3086 3089 3091 3093 3096 3098 3100 3102 3104 3107 3109 3110 3112 3114 3116 3118 3120 3123 3125 3127 3129 3132 3134 3137 3139 3141 3144 3146 3148 3150 3152 3153 3155 3157 3158 3160 3161 3163 3164 3166 3167 3167 3168 3169 3170 3171 3172 3172 3172 3173 3173 3172 3173 3174 3174 3174 3174 3176 3176 3177 3177 3178 3178 3179 3179 3180 3181 3182
3028 3031 3035 3038 3041 3044 3046 3049 3051 3054 3056 3059 3062 3066 3069 3072 3075 3078 3080 3083 3086 3088 3091 3093 3095 3098 3100 3102 3104 3107 3108 3109 3111 3113 3115 3118 3120 3122 3125 3127 3129 3131 3134 3136 3139 3141 3143 3145 3147 3149 3151 3152 3154 3156 3157 3159 3160 3162 3163 3164 3165 3166 3167 3168 3169 3170 3171 3171 3171 3172 3171 3171 3171 3173 3173 3173 3174 3175 3176 3176 3177 3177 3177 3178 3178 3179 3180 3181
3026 3030 3034 3037 3040 3043 3045 3048 3051 3053 3055 3058 3061 3065 3068 3071 3074 3077 3080 3083 3086 3088 3091 3093 3095 3097 3099 3102 3104 3105 3107 3109 3111 3113 3115 3117 3119 3122 3124 3126 3129 3131 3133 3135 3138 3140 3142 3144 3146 3148 3149 3151 3153 3154 3156 3157 3159 3160 3161 3163 3164 3165 3166 3167 3168 3169 3169 3170 3170 3171 3170 3169 3170 3171 3172 3172 3173 3174 3175 3176 3176 3176 3177 3177 3178 3178 3179 3180
3024 3028 3032 3036 3039 3042 3045 3047 3050 3053 3055 3058 3061 3064 3068 3071 3074 3077 3080 3083 3086 3088 3090 3092 3095 3097 3099 3101 3103 3104 3106 3108 3110 3112 3114 3116 3118 3121 3123 3126 3128 3130 3132 3134 3137 3139 3141 3143 3145 3147 3148 3150 3152 3153 3155 3156 3158 3159 3160 3161 3162 3163 3164 3165 3167 3167 3168 3168 3169 3170 3169 3168 3169 3170 3170 3171 3172 3173 3174 3175 3175 3175 3175 3176 3177 3177 3178 3179
3022 3027 3031 3035 3038 3041 3044 3047 3050 3052 3055 3057 3060 3063 3068 3071 3074 3077 3080 3083 3085 3088 3090 3092 3094 3096 3098 3100 3101 3103 3105 3107 3109 3111 3113 3116 3118 3120 3123 3125 3127 3130 3132 3134 3136 3138 3140 3142 3144 3146 3147 3149 3150 3152 3154 3155 3156 3158 3159 3159 3159 3161 3162 3164 3165 3166 3167 3167 3168 3169 3168 3167 3168 3169 3169 3170 3171 3172 3173 3173 3174 3174 3175 3175 3175 3176 3177 3178
3021 3025 3029 3033 3037 3040 3043 3046 3049 3052 3054 3057 3060 3063 3067 3070 3073 3076 3079 3082 3085 3087 3089 3091 3093 3095 3097 3099 3100 3102 3104 3106 3108 3111 3113 3115 3117 3120 3122 3125 3127 3129 3131 3133 3135 3137 3139 3141 3143 3144 3146 3148 3149 3151 3153 3154 3155 3156 3157 3157 3157 3159 3161 3163 3164 3165 3165 3166 3166 3167 3166 3166 3167 3167 3168 3169 3170 3171 3171 3172 3173 3173 3173 3174 3174 3175 3176 3177
3019 3024 3028 3032 3036 3039 3042 3045 3048 3051 3054 3057 3059 3062 3065 3069 3072 3075 3078 3081 3083 3086 3088 3090 3092 3095 3096 3097 3098 3101 3103 3106 3108 3110 3112 3115 3117 3119 3122 3124 3126 3128 3130 3132 3134 3135 3137 3139 3141 3143 3144 3146 3148 3150 3152 3152 3153 3154 3155 3156 3157 3158 3160 3161 3163 3163 3164 3164 3164 3165 3165 3166 3166 3166 3167 3167 3168 3169 3170 3170 3171 3172 3172 3172 3173 3174 3175 3176
3018 3022 3026 3030 3034 3038 3041 3044 3047 3050 3053 3056 3058 3060 3064 3067 3071 3073 3076 3079 3082 3085 3087 3088 3091 3093 3094 3094 3097 3100 3103 3105 3107 3110 3112 3114 3116 3118 3121 3123 3125 3127 3129 3131 3132 3134 3136 3138 3140 3142 3143 3144 3146 3147 3148 3149 3151 3152 3154 3155 3156 3157 3159 3160 3161 3162 3163 3163 3163 3163 3163 3164 3165 3165 3165 3166 3166 3167 3168 3169 3169 3170 3171 3172 3172 3173 3174 3175
3016 3021 3025 3029 3032 3036 3040 3043 3046 3049 3052 3054 3056 3059 3062 3066 3069 3072 3075 3078 3080 3082 3083 3085 3087 3089 3090 3092 3096 3099 3102 3105 3107 3109 3111 3113 3115 3117 3120 3122 3124 3126 3128 3129 3131 3133 3134 3137 3138 3139 3140 3142 3144 3146 3148 3150 3152 3153 3153 3155 3155 3156 3157 3159 3160 3160 3161 3162 3162 3162 3162 3163 3164 3163 3164 3164 3164 3165 3166 3167 3168 3169 3170 3171 3171 3172 3172 3173
3015 3019 3024 3027 3031 3035 3038 3042 3044 3047 3050 3052 3055 3057 3059 3062 3065 3068 3072 3075 3078 3079 3080 3083 3086 3088 3089 3092 3095 3098 3101 3103 3106 3108 3110 3112 3114 3117 3119 3121 3123 3125 3126 3128 3130 3131 3134 3135 3135 3136 3139 3141 3144 3146 3148 3150 3151 3152 3153 3154 3154 3155 3156 3158 3158 3159 3160 3160 3160 3161 3160 3161 3162 3162 3162 3163 3163 3164 3165 3166 3167 3168 3169 3169 3170 3171 3171 3172
3013 3018 3022 3026 3029 3033 3036 3040 3043 3046 3048 3051 3053 3055 3057 3060 3063 3065 3068 3072 3075 3078 3080 3082 3085 3088 3090 3092 3094 3097 3099 3102 3105 3107 3109 3112 3114 3116 3117 3119 3121 3122 3125 3127 3129 3131 3133 3133 3134 3137 3140 3143 3144 3146 3147 3148 3150 3151 3152 3152 3153 3154 3155 3156 3157 3157 3158 3159 3159 3159 3158 3158 3160 3161 3161 3162 3161 3162 3164 3164 3165 3166 3167 3167 3168 3169 3170 3171
3012 3016 3021 3025 3028 3031 3035 3038 3041 3044 3047 3049 3052 3054 3057 3061 3064 3067 3069 3071 3074 3077 3079 3082 3084 3087 3090 3092 3093 3096 3098 3100 3103 3106 3108 3111 3112 3114 3116 3118 3120 3122 3124 3126 3128 3130 3131 3132 3135 3139 3140 3141 3143 3144 3146 3147 3148 3149 3150 3151 3152 3153 3154 3155 3155 3156 3157 3157 3157 3157 3156 3156 3158 3159 3159 3160 3160 3160 3162 3162 3163 3164 3165 3166 3167 3168 3168 3169
3010 3015 3019 3023 3026 3029 3032 3036 3039 3042 3045 3048 3051 3053 3057 3061 3064 3068 3070 3072 3074 3077 3079 3082 3084 3086 3089 3091 3092 3094 3097 3099 3102 3104 3107 3109 3111 3113 3115 3117 3119 3121 3123 3124 3126 3127 3129 3131 3135 3137 3138 3140 3141 3143 3144 3145 3147 3148 3149 3150 3151 3152 3153 3153 3154 3155 3156 3156 3156 3156 3155 3154 3155 3156 3157 3158 3158 3159 3160 3160 3161 3162 3163 3164 3165 3165 3166 3167
3009 3013 3017 3021 3024 3027 3030 3034 3037 3040 3044 3047 3050 3053 3057 3060 3063 3066 3069 3072 3074 3076 3078 3081 3084 3086 3088 3090 3092 3094 3096 3099 3102 3104 3106 3108 3110 3112 3114 3117 3119 3120 3122 3124 3126 3127 3129 3132 3134 3134 3136 3138 3140 3141 3142 3144 3146 3147 3148 3149 3150 3151 3152 3152 3153 3154 3155 3155 3155 3155 3154 3152 3153 3154 3155 3156 3156 3157 3158 3159 3160 3161 3161 3162 3163 3163 3164 3165
3007 3011 3015 3019 3022 3025 3028 3032 3035 3039 3043 3046 3049 3053 3056 3059 3062 3065 3068 3071 3072 3074 3077 3080 3082 3084 3087 3089 3091 3093 3096 3099 3101 3104 3106 3108 3109 3111 3114 3116 3118 3119 3121 3123 3126 3127 3129 3131 3132 3133 3135 3137 3138 3140 3141 3143 3145 3146 3147 3149 3150 3150 3151 3152 3153 3153 3154 3154 3154 3154 3154 3151 3150 3152 3153 3154 3155 3155 3156 3157 3158 3158 3159 3160 3161 3161 3162 3163
3004 3009 3013 3017 3020 3023 3026 3029 3033 3038 3041 3044 3048 3052 3055 3058 3062 3064 3067 3070 3071 3072 3075 3077 3080 3082 3085 3087 3089 3092 3096 3097 3100 3103 3105 3107 3108 3110 3112 3114 3116 3118 3120 3123 3125 3126 3127 3129 3130 3132 3133 3135 3137 3139 3140 3142 3144 3145 3146 3148 3149 3149 3150 3151 3152 3153 3154 3153 3153 3154 3154 3151 3148 3150 3151 3152 3153 3154 3155 3156 3156 3156 3157 3158 3159 3159 3160 3160
3003 3007 3011 3015 3018 3021 3024 3027 3032 3035 3038 3043 3047 3051 3054 3057 3061 3063 3067 3071 3070 3069 3073 3075 3078 3080 3083 3085 3088 3090 3093 3094 3097 3100 3103 3105 3107 3109 3111 3112 3114 3117 3119 3121 3122 3123 3125 3127 3128 3130 3132 3134 3135 3137 3139 3141 3143 3144 3145 3147 3148 3149 3150 3151 3152 3153 3153 3153 3153 3152 3153 3152 3148 3147 3149 3150 3151 3152 3153 3154 3153 3154 3155 3156 3156 3157 3157 3158
3001 3005 3009 3013 3017 3020 3023 3027 3030 3033 3038 3042 3046 3050 3053 3056 3060 3062 3066 3070 3067 3066 3070 3073 3076 3079 3081 3084 3086 3088 3090 3092 3095 3097 3100 3103 3105 3107 3109 3111 3114 3116 3118 3119 3119 3121 3123 3125 3127 3129 3130 3131 3133 3136 3138 3140 3142 3143 3144 3146 3148 3149 3150 3150 3151 3152 3152 3152 3151 3150 3152 3152 3147 3144 3147 3148 3149 3151 3151 3152 3152 3152 3153 3153 3154 3154 3155 3155
2999 3003 3007 3011 3015 3018 3022 3025 3029 3033 3038 3042 3046 3049 3053 3056 3060 3063 3066 3066 3063 3064 3067 3070 3074 3077 3079 3082 3084 3086 3088 3091 3093 3095 3098 3101 3103 3106 3108 3110 3114 3116 3117 3118 3119 3121 3123 3125 3127 3128 3129 3130 3132 3135 3137 3139 3140 3142 3144 3146 3147 3148 3149 3150 3150 3150 3151 3150 3149 3149 3150 3150 3145 3143 3144 3146 3147 3148 3149 3149 3150 3150 3151 3151 3151 3152 3152 3153
2997 3001 3005 3009 3013 3016 3020 3024 3028 3032 3036 3041 3045 3048 3052 3055 3057 3061 3065 3061 3058 3062 3065 3068 3071 3073 3076 3079 3081 3084 3087 3089 3091 3094 3096 3099 3101 3104 3107 3109 3113 3115 3116 3118 3119 3120 3122 3124 3125 3126 3128 3129 3131 3133 3135 3137 3139 3141 3143 3145 3147 3148 3148 3149 3149 3149 3150 3148 3147 3147 3148 3148 3146 3142 3142 3144 3145 3146 3146 3147 3148 3148 3149 3149 3149 3150 3150 3151
2995 2999 3003 3007 3011 3015 3019 3023 3026 3030 3034 3039 3043 3047 3050 3053 3056 3058 3057 3055 3056 3060 3062 3064 3067 3070 3073 3076 3078 3081 3084 3087 3090 3092 3094 3096 3099 3102 3104 3107 3109 3112 3115 3116 3117 3118 3120 3122 3123 3124 3126 3128 3129 3131 3133 3136 3137 3140 3142 3144 3146 3147 3148 3148 3148 3148 3149 3146 3145 3145 3145 3146 3145 3141 3141 3143 3143 3144 3145 3146 3146 3147 3148 3148 3149 3149 3150 3151
2994 2997 3001 3005 3009 3014 3018 3022 3026 3029 3033 3037 3041 3044 3046 3051 3053 3051 3049 3050 3054 3055 3057 3060 3064 3067 3071 3075 3077 3080 3082 3085 3088 3090 3092 3094 3096 3098 3101 3103 3105 3108 3111 3112 3114 3116 3118 3120 3121 3123 3125 3126 3127 3129 3131 3133 3136 3138 3140 3142 3145 3147 3148 3148 3148 3148 3146 3144 3144 3144 3145 3144 3140 3139 3141 3142 3143 3143 3144 3145 3145 3146 3147 3147 3148 3149 3149 3150
2992 2995 2999 3003 3008 3012 3016 3020 3024 3028 3031 3035 3039 3041 3045 3047 3044 3041 3043 3046 3048 3050 3053 3058 3061 3064 3069 3072 3075 3078 3081 3084 3086 3088 3091 3093 3095 3097 3099 3101 3103 3105 3106 3108 3112 3114 3117 3119 3119 3121 3122 3123 3125 3126 3127 3129 3133 3135 3138 3140 3142 3145 3147 3147 3148 3148 3144 3142 3142 3144 3144 3141 3136 3136 3138 3140 3141 3141 3142 3143 3144 3145 3146 3147 3147 3148 3149 3150
2991 2994 2998 3002 3006 3010 3014 3018 3022 3026 3030 3033 3036 3039 3042 3040 3035 3036 3040 3043 3045 3047 3051 3055 3058 3063 3067 3069 3072 3076 3079 3082 3084 3086 3088 3090 3092 3094 3096 3099 3101 3103 3104 3108 3110 3112 3114 3115 3115 3117 3119 3120 3122 3124 3126 3128 3132 3134 3136 3138 3139 3140 3142 3143 3144 3143 3141 3141 3142 3143 3143 3138 3135 3135 3135 3135 3137 3138 3140 3141 3143 3144 3145 3146 3146 3147 3148 3148
2990 2993 2997 3001 3005 3009 3013 3016 3020 3024 3028 3030 3034 3036 3034 3030 3029 3033 3037 3040 3043 3045 3048 3053 3057 3060 3064 3067 3071 3074 3077 3079 3082 3085 3086 3087 3088 3090 3092 3094 3097 3100 3102 3105 3107 3109 3111 3111 3112 3114 3117 3119 3121 3124 3126 3129 3131 3132 3134 3135 3136 3136 3137 3138 3140 3140 3140 3142 3141 3141 3138 3134 3134 3135 3134 3135 3135 3136 3139 3140 3142 3143 3143 3144 3145 3146 3147 3147
2989 2992 2996 3000 3003 3007 3011 3014 3018 3022 3025 3028 3030 3030 3026 3025 3028 3031 3035 3039 3041 3043 3046 3052 3056 3058 3061 3065 3068 3071 3074 3077 3079 3082 3084 3085 3086 3087 3090 3092 3094 3096 3098 3100 3103 3105 3108 3109 3110 3113 3115 3118 3120 3122 3125 3127 3128 3130 3131 3131 3132 3134 3135 3137 3139 3140 3142 3141 3138 3136 3134 3132 3133 3134 3133 3135 3135 3136 3138 3139 3141 3142 3142 3143 3144 3144 3145 3145
2988 2991 2994 2997 3001 3005 3009 3013 3016 3019 3023 3025 3025 3023 3022 3025 3029 3031 3034 3038 3040 3043 3046 3049 3053 3056 3057 3060 3064 3067 3071 3074 3077 3078 3080 3082 3083 3084 3087 3090 3092 3094 3096 3099 3101 3102 3104 3107 3109 3111 3114 3116 3118 3120 3122 3124 3125 3126 3127 3128 3130 3133 3135 3136 3138 3140 3143 3141 3136 3132 3130 3130 3132 3131 3130 3132 3133 3134 3137 3138 3140 3141 3141 3142 3142 3143 3143 3143
2986 2990 2993 2996 2999 3003 3007 3011 3014 3017 3020 3022 3021 3020 3022 3025 3029 3031 3034 3036 3039 3043 3045 3046 3049 3052 3054 3056 3059 3063 3067 3069 3072 3074 3076 3078 3078 3079 3082 3086 3088 3092 3095 3097 3100 3101 3104 3106 3108 3110 3112 3115 3117 3119 3120 3121 3122 3123 3124 3126 3129 3131 3132 3134 3136 3138 3139 3140 3135 3130 3128 3127 3127 3127 3128 3130 3131 3133 3134 3136 3137 3138 3139 3140 3140 3140 3141 3142
2984 2987 2991 2994 2998 3002 3005 3009 3012 3015 3018 3017 3016 3018 3021 3025 3028 3030 3033 3036 3039 3041 3043 3045 3047 3050 3052 3054 3056 3060 3063 3065 3067 3070 3072 3074 3075 3075 3079 3082 3085 3089 3092 3095 3098 3100 3102 3104 3106 3108 3110 3113 3115 3116 3116 3116 3118 3120 3123 3125 3127 3129 3130 3131 3133 3133 3133 3136 3135 3129 3126 3124 3122 3123 3126 3127 3129 3131 3132 3133 3135 3136 3137 3138 3138 3139 3140 3141
2982 2985 2988 2992 2996 3000 3003 3007 3010 3012 3013 3012 3013 3016 3019 3023 3026 3028 3031 3034 3037 3039 3041 3043 3045 3047 3049 3052 3055 3058 3060 3062 3064 3066 3068 3070 3072 3073 3076 3080 3083 3086 3090 3093 3096 3098 3100 3102 3104 3106 3109 3110 3110 3110 3110 3111 3113 3116 3119 3122 3124 3126 3128 3129 3130 3130 3130 3132 3133 3129 3124 3121 3120 3122 3123 3125 3126 3128 3130 3131 3132 3134 3135 3135 3136 3138 3139 3139
2980 2983 2986 2990 2993 2996 3000 3004 3006 3008 3008 3008 3011 3015 3018 3021 3024 3027 3030 3032 3034 3037 3039 3042 3044 3046 3047 3050 3053 3055 3058 3060 3062 3064 3065 3067 3069 3070 3073 3077 3080 3083 3087 3089 3092 3095 3097 3099 3101 3103 3104 3105 3105 3106 3108 3111 3113 3114 3116 3118 3119 3121 3124 3126 3127 3126 3126 3127 3128 3127 3123 3119 3120 3121 3122 3124 3125 3126 3128 3130 3131 3132 3133 3134 3135 3136 3136 3136
2977 2980 2983 2987 2990 2993 2997 2999 3001 3003 3004 3005 3009 3012 3015 3019 3022 3025 3028 3031 3033 3035 3037 3040 3042 3044 3046 3048 3050 3053 3055 3057 3059 3061 3062 3064 3066 3069 3071 3074 3077 3081 3084 3086 3088 3091 3094 3097 3099 3101 3102 3103 3105 3107 3108 3110 3112 3114 3115 3116 3117 3118 3119 3120 3120 3119 3122 3124 3124 3125 3123 3118 3118 3120 3121 3123 3124 3125 3127 3128 3129 3130 3131 3132 3133 3133 3134 3134
2975 2978 2981 2984 2988 2990 2993 2996 2998 3000 3000 3002 3006 3010 3014 3017 3021 3023 3026 3028 3031 3033 3035 3038 3040 3042 3044 3046 3048 3050 3053 3055 3056 3058 3060 3061 3064 3068 3070 3073 3076 3079 3082 3084 3086 3089 3092 3094 3096 3098 3101 3102 3103 3105 3106 3108 3109 3110 3110 3111 3113 3113 3113 3116 3116 3117 3120 3120 3121 3124 3122 3115 3115 3118 3120 3121 3122 3123 3125 3126 3127 3129 3130 3131 3131 3131 3131 3131
2974 2977 2979 2982 2985 2987 2989 2991 2993 2995 2997 2999 3004 3008 3012 3016 3019 3022 3024 3027 3029 3031 3033 3035 3037 3039 3041 3044 3047 3049 3051 3053 3054 3056 3058 3059 3062 3065 3068 3071 3074 3076 3078 3080 3082 3085 3087 3089 3091 3095 3099 3101 3103 3104 3103 3103 3104 3103 3103 3105 3107 3108 3111 3114 3115 3117 3117 3116 3118 3121 3116 3112 3114 3117 3117 3119 3120 3121 3123 3124 3126 3127 3128 3129 3129 3129 3129 3129
2973 2975 2978 2981 2983 2985 2987 2989 2991 2992 2994 2996 3001 3005 3009 3013 3016 3019 3022 3025 3027 3029 3031 3033 3035 3038 3040 3042 3045 3047 3049 3050 3052 3053 3055 3057 3059 3063 3066 3068 3071 3073 3076 3078 3080 3082 3083 3084 3085 3088 3091 3093 3094 3094 3092 3092 3094 3096 3098 3100 3102 3105 3108 3110 3113 3115 3113 3111 3113 3113 3109 3110 3113 3115 3116 3117 3118 3119 3122 3123 3124 3126 3126 3126 3126 3127 3127 3127
2971 2973 2976 2979 2982 2983 2985 2988 2990 2992 2993 2995 2999 3002 3006 3009 3013 3017 3020 3022 3024 3026 3029 3031 3033 3036 3038 3040 3042 3044 3046 3048 3049 3051 3052 3054 3056 3059 3063 3066 3068 3071 3074 3076 3078 3079 3080 3080 3081 3081 3081 3081 3082 3083 3084 3087 3090 3092 3093 3096 3099 3102 3105 3108 3111 3110 3107 3107 3107 3106 3107 3110 3111 3113 3115 3117 3118 3119 3120 3121 3123 3123 3124 3124 3124 3125 3125 3124
2969 2971 2974 2977 2980 2981 2983 2985 2987 2990 2992 2995 2997 3000 3003 3007 3011 3014 3017 3019 3022 3024 3026 3028 3031 3033 3035 3037 3040 3042 3044 3045 3047 3048 3050 3052 3054 3057 3060 3063 3066 3068 3071 3073 3075 3076 3077 3077 3077 3078 3078 3080 3082 3084 3085 3087 3090 3091 3092 3094 3097 3099 3102 3104 3104 3102 3103 3106 3102 3099 3104 3108 3108 3111 3114 3115 3116 3117 3118 3119 3120 3120 3121 3122 3122 3123 3122 3122
2967 2969 2972 2975 2977 2978 2980 2982 2985 2987 2990 2994 2996 2998 3001 3004 3007 3010 3013 3016 3019 3021 3023 3025 3027 3030 3032 3035 3037 3039 3042 3043 3044 3046 3048 3050 3052 3054 3057 3060 3062 3065 3068 3070 3071 3073 3073 3073 3075 3076 3077 3079 3081 3083 3084 3086 3088 3090 3091 3092 3094 3096 3098 3098 3098 3098 3100 3100 3095 3095 3102 3104 3104 3109 3112 3112 3114 3116 3116 3116 3117 3117 3118 3119 3119 3119 3118 3118
2964 2967 2970 2973 2974 2975 2977 2981 2984 2986 2988 2991 2994 2996 2998 3001 3004 3007 3010 3013 3015 3017 3020 3022 3024 3028 3030 3032 3035 3037 3039 3040 3041 3043 3045 3047 3049 3052 3054 3056 3059 3062 3065 3067 3068 3070 3070 3071 3073 3074 3075 3077 3078 3080 3082 3083 3085 3086 3088 3090 3092 3093 3094 3094 3094 3095 3096 3095 3094 3097 3098 3098 3101 3106 3109 3110 3112 3113 3113 3112 3113 3114 3114 3114 3114 3114 3114 3114
2962 2965 2967 2970 2971 2973 2976 2979 2982 2985 2987 2989 2991 2993 2996 2998 3001 3004 3007 3009 3011 3014 3016 3018 3021 3025 3028 3030 3032 3034 3036 3039 3040 3041 3044 3046 3048 3050 3052 3053 3055 3058 3061 3063 3065 3067 3068 3069 3070 3071 3073 3073 3074 3077 3078 3079 3081 3082 3084 3087 3089 3090 3090 3090 3089 3091 3092 3092 3093 3096 3095 3092 3095 3101 3105 3107 3109 3109 3108 3108 3109 3109 3108 3108 3109 3109 3109 3109
2960 2962 2965 2967 2969 2971 2974 2977 2980 2983 2985 2986 2988 2990 2993 2996 2999 3002 3005 3007 3009 3012 3014 3015 3019 3023 3026 3028 3030 3032 3035 3037 3038 3040 3043 3044 3046 3048 3049 3051 3053 3055 3057 3060 3062 3063 3065 3066 3067 3069 3070 3069 3070 3073 3074 3076 3078 3079 3079 3082 3083 3083 3083 3082 3083 3086 3088 3089 3091 3093 3090 3087 3089 3096 3101 3102 3103 3104 3104 3105 3105 3104 3104 3104 3104 3103 3103 3104
2958 2960 2963 2965 2967 2969 2971 2974 2978 2980 2982 2983 2986 2988 2991 2993 2997 3001 3003 3005 3007 3010 3012 3014 3017 3021 3023 3024 3026 3029 3032 3035 3036 3038 3040 3042 3043 3045 3046 3048 3050 3052 3054 3056 3058 3060 3061 3062 3064 3066 3066 3066 3067 3069 3071 3074 3075 3072 3071 3074 3076 3076 3077 3079 3080 3083 3084 3086 3087 3086 3085 3085 3087 3092 3095 3097 3098 3099 3100 3100 3100 3099 3099 3099 3098 3098 3098 3098